SCP
0 0 0 0 0 0 0 0 0 0 0 0 0 0 0 0 0 0 0 0 0 0 0 0 0 3 3 3 3 2 2 1 1 1 0 0 0 0 0 0 0 0 0 0
0 0 0 0 0 0 0 -0 0 0 0 0 0 0 0 0 0 0 0 0 0 0 0 0 0 0 2 3 2 2 2 1 1 1 1 0 0 0 0 0 0 0 0 0
0 0 0 0 0 0 0 0 0 0 0 0 0 0 0 0 0 0 0 0 0 0 0 0 0 0 0 0 1 1 1 1 1 1 1 0 0 0 0 0 0 0 0 0
0 0 0 0 0 0 0 0 -0 0 0 0 0 0 0 0 0 0 0 0 0 0 0 0 0 0 0 0 0 0 1 1 1 1 1 0 0 0 0 0 0 0 0 0
0 0 0 0 0 0 0 0 0 0 0 0 0 0 0 0 0 0 0 0 0 0 0 0 0 0 0 0 0 0 0 0 0 1 1 1 0 0 0 0 0 0 0 0
0 0 0 0 0 0 0 0 0 -0 0 0 0 0 0 0 0 0 0 0 0 0 0 0 0 0 0 0 0 0 0 0 0 0 1 0 0 1 0 0 0 0 0 0
0 0 0 0 0 0 0 0 0 -0 0 0 0 0 0 0 0 0 0 0 0 0 0 0 0 0 0 0 0 0 0 0 0 0 0 1 1 1 0 0 0 0 0 0
0 0 0 0 -0 0 0 0 0 0 0 0 0 0 0 0 0 0 0 0 0 0 0 0 0 0 0 0 0 0 0 0 0 0 0 0 0 0 0 1 1 0 0 0
0 0 0 -0 -0 0 0 0 0 0 0 0 0 0 0 0 0 0 0 0 0 0 0 0 0 0 0 0 0 0 0 0 0 0 0 0 0 0 0 0 0 1 0 0
0 0 -0 0 0 0 0 0 0 0 0 0 0 0 0 0 0 0 0 0 0 0 0 0 0 0 0 0 0 0 0 0 0 0 0 0 0 0 0 0 0 0 0 0
0 0 -0 0 0 -0 0 0 0 0 0 0 0 0 0 0 0 0 0 0 0 0 0 0 0 0 0 0 0 0 0 0 0 0 0 0 0 0 0 0 0 0 0 0
0 0 -0 0 0 -0 -0 0 0 0 0 -0 0 0 0 0 0 0 0 0 0 0 0 0 0 0 0 0 0 0 0 0 0 0 0 0 0 0 0 0 0 0 0 0
0 0 0 0 -0 -0 0 0 0 0 0 -0 0 0 0 0 0 0 0 0 0 0 0 0 0 0 0 0 0 0 0 0 0 0 0 0 0 0 0 0 0 0 0 0
0 0 0 0 0 0 -0 0 0 0 0 0 -0 -0 0 0 0 0 0 0 0 0 0 0 0 0 0 0 0 0 0 0 0 0 0 0 0 0 0 0 0 0 0 0
0 0 0 0 0 -0 0 -0 0 0 0 0 0 0 0 0 0 0 0 0 0 0 0 0 0 0 0 0 0 0 0 0 0 0 0 0 0 0 0 0 0 0 0 0
0 0 0 0 0 0 0 0 0 0 0 0 0 0 0 0 0 0 0 0 0 0 0 0 0 0 0 0 0 0 0 0 0 0 0 0 0 0 0 0 0 0 0 0
0 0 0 0 0 -0 0 0 0 0 0 0 0 0 0 0 0 0 0 0 0 0 0 0 0 0 0 0 0 0 0 0 0 0 0 0 0 0 0 0 0 0 0 0
0 0 0 0 0 0 0 0 0 0 0 0 0 0 0 0 0 0 0 0 0 0 0 0 0 0 0 0 0 0 0 0 0 0 0 0 0 0 0 0 0 0 0 0
0 0 0 0 -0 0 0 0 0 0 0 0 0 0 0 0 0 0 0 0 0 0 0 0 0 0 0 0 0 0 0 0 0 0 0 0 0 0 0 0 0 0 0 0
0 0 0 0 -0 0 0 0 0 -0 0 0 0 0 0 0 0 0 0 0 0 0 0 0 0 0 0 0 0 0 0 0 0 0 0 0 0 0 0 0 0 0 0 0
0 0 0 0 0 0 0 0 0 0 0 0 0 0 0 0 0 0 0 0 0 0 0 0 0 0 0 0 0 0 0 0 0 0 0 0 0 0 0 0 0 0 0 0
0 0 0 0 0 0 0 -0 0 0 0 0 0 0 0 0 0 0 0 0 0 0 0 0 0 0 0 0 0 0 0 0 0 0 0 0 0 0 0 0 0 0 0 0
0 0 0 0 0 0 0 0 0 0 0 0 0 0 0 0 0 0 0 0 0 0 0 0 0 0 0 0 0 0 0 0 0 0 0 0 0 0 0 0 0 0 0 0
0 0 0 0 0 0 0 0 0 0 0 0 0 0 0 0 0 0 0 0 0 0 0 0 0 0 0 0 0 0 0 0 0 0 0 0 0 0 0 0 0 0 0 0
0 0 0 0 0 0 0 0 0 0 0 0 0 0 0 0 0 0 0 0 0 0 0 0 0 0 0 0 0 0 0 0 0 0 0 0 0 0 0 0 0 0 0 0
0 0 0 0 0 0 0 0 0 0 0 0 0 0 0 0 0 0 0 0 0 0 0 0 0 0 0 0 0 0 0 0 0 0 0 0 0 0 0 0 0 0 0 0
Wind_Speed_500mb
19 15 10 23 24 30 27 29 27 52 50 63 56 46 50 29 21 45 52 49 44 51 58 66 77 94 92 85 93 89 87 95 90 80 76 71 68 61 58 54 49 44 40 40
17 15 20 27 28 33 29 26 23 34 46 57 57 48 43 49 19 13 27 56 38 51 55 60 76 79 95 90 89 93 92 97 88 84 79 74 71 64 59 57 52 49 43 39
18 20 31 29 27 27 29 21 22 23 24 46 53 44 45 19 20 12 23 23 32 38 41 53 67 77 83 89 92 89 98 94 91 87 82 74 67 61 58 58 59 56 49 48
9 28 28 27 18 30 22 18 21 26 18 32 50 29 38 38 28 13 16 22 25 25 32 40 48 67 72 90 88 87 86 86 90 87 82 78 76 74 70 65 66 61 56 51
25 23 31 27 27 32 18 36 30 29 20 21 43 32 41 44 37 24 12 23 23 17 19 24 33 47 53 71 85 81 87 88 83 84 80 76 73 68 68 68 67 65 61 55
26 12 19 22 42 7 37 25 26 17 14 17 30 34 43 40 34 26 16 24 25 17 18 18 19 34 39 47 65 72 82 89 87 81 78 75 72 71 67 68 68 67 65 62
23 10 25 47 33 16 43 15 10 18 13 9 28 37 20 28 32 29 20 25 24 21 22 19 22 29 31 39 50 55 68 81 78 78 76 71 69 64 63 67 68 69 67 64
20 11 25 26 14 20 27 13 11 18 10 24 27 20 11 18 29 36 35 29 29 28 24 22 22 31 23 33 40 44 58 72 72 74 69 65 67 65 57 50 53 59 60 55
15 18 9 19 11 26 18 9 15 12 16 12 11 9 22 19 24 32 32 33 34 31 29 27 18 27 24 27 30 35 52 60 64 68 68 64 60 56 61 57 48 45 50 48
8 17 5 14 16 23 11 13 2 8 9 4 13 13 13 12 21 23 26 30 30 30 30 25 26 21 24 23 26 32 44 49 55 58 62 64 65 62 57 52 50 52 52 48
18 8 23 13 17 22 20 11 9 9 8 7 3 7 20 23 21 22 25 28 29 32 34 32 30 25 21 26 22 27 40 41 48 55 57 57 57 59 59 60 58 54 49 49
11 9 20 4 6 4 10 18 12 8 11 6 4 7 17 25 27 30 31 29 32 36 34 34 30 26 34 22 26 24 26 29 41 37 52 55 55 61 57 57 55 55 54 53
19 8 15 7 9 7 12 28 22 16 12 6 7 9 13 24 29 31 31 31 34 37 38 36 33 31 29 25 20 27 16 18 26 37 28 46 42 48 48 53 53 53 53 53
19 11 12 13 5 11 22 30 27 18 7 7 13 19 22 26 26 33 34 33 34 36 38 39 39 35 35 20 31 23 20 9 27 25 28 41 37 43 46 49 48 49 49 51
18 7 7 3 8 10 16 27 25 23 19 13 14 19 18 18 19 29 32 31 34 37 38 39 38 35 27 37 32 17 26 15 17 17 15 24 30 33 30 39 42 41 41 42
17 11 10 23 12 12 12 21 23 15 18 12 10 12 12 16 18 27 30 30 33 34 34 35 35 37 38 37 27 32 22 25 13 10 14 16 16 21 19 25 35 36 33 35
14 14 14 7 0 13 11 14 15 9 14 14 9 8 15 12 15 19 23 26 27 28 29 32 33 32 34 35 33 31 25 20 11 11 11 7 15 13 16 20 25 29 29 28
17 17 7 14 16 6 8 6 8 8 8 11 6 10 13 16 12 9 16 20 22 23 24 24 27 27 26 27 27 27 25 23 20 15 8 3 10 8 12 16 21 27 29 29
6 9 9 7 16 6 8 8 7 10 3 6 9 11 14 18 15 6 12 16 18 21 23 22 22 24 24 24 25 23 25 25 21 15 16 11 1 8 7 9 19 23 25 28
9 12 10 11 9 7 9 9 4 6 7 4 8 11 16 20 8 10 16 16 15 17 17 20 24 20 21 22 22 21 19 17 18 17 15 11 10 9 12 9 15 19 24 27
12 10 9 13 8 7 6 7 3 9 8 4 6 9 12 9 11 19 17 16 15 15 16 17 16 19 21 23 20 19 19 19 18 17 15 13 10 10 11 14 15 18 20 21
6 8 11 9 7 4 5 3 6 5 7 5 4 7 9 13 14 13 16 16 16 14 15 15 12 14 18 20 21 19 19 20 20 18 16 15 13 12 13 14 15 18 20 20
4 4 7 7 9 3 8 9 12 13 10 9 7 6 10 15 12 13 15 14 14 14 15 17 15 15 15 18 19 19 20 20 20 19 19 17 15 15 15 16 17 16 16 19
13 10 7 7 2 10 10 16 19 21 20 16 15 15 14 14 13 13 14 12 11 11 12 14 15 14 15 17 19 21 21 20 20 20 19 19 16 17 15 15 15 15 15 19
4 13 9 13 29 21 23 19 15 19 21 24 24 22 20 18 15 16 15 13 12 12 11 12 14 15 16 17 19 20 21 19 18 19 19 18 18 18 15 13 15 16 16 22
20 10 7 10 9 14 22 16 17 19 20 20 23 22 19 21 19 19 19 16 15 14 16 17 18 18 18 20 20 21 21 21 19 17 17 17 19 19 18 17 13 13 19 19
Wind_Direction_500mb
313 275 267 340 310 307 297 289 292 242 205 223 222 231 217 215 220 218 221 208 204 185 188 189 184 197 194 196 197 197 189 192 193 192 190 187 188 187 187 185 182 176 174 174
334 250 357 324 308 306 291 285 288 278 225 212 216 223 221 217 205 228 235 213 168 179 187 176 177 185 196 198 196 199 197 199 195 192 193 191 190 189 191 188 185 184 183 181
317 345 338 326 315 343 295 270 276 272 267 242 220 224 211 149 144 97 50 56 117 156 172 172 172 181 181 191 199 197 201 201 195 193 193 192 189 191 191 194 191 190 191 191
308 354 346 323 323 356 309 300 300 277 281 217 209 214 216 168 162 151 60 51 71 128 164 166 168 178 175 185 193 196 197 199 194 197 193 193 193 192 196 196 197 193 193 191
354 345 350 355 337 313 283 316 300 294 303 271 214 219 203 180 176 163 82 62 61 88 139 150 158 170 173 178 189 195 195 196 190 195 197 196 198 197 195 199 198 198 197 192
336 25 10 354 321 38 343 288 288 270 260 231 221 195 216 187 187 133 93 64 59 70 109 122 138 164 160 170 181 187 190 189 191 193 197 198 197 196 197 199 199 199 201 200
343 74 17 9 348 333 356 325 236 218 222 237 194 198 64 32 12 109 99 69 59 67 82 90 107 136 151 162 166 174 180 185 183 189 197 199 202 205 207 206 203 200 204 207
349 344 16 6 32 312 302 324 316 229 193 217 234 198 92 55 53 67 66 64 60 61 69 79 81 110 128 145 156 162 166 171 179 188 189 186 196 200 196 195 201 201 204 208
323 334 7 51 18 14 345 336 338 285 223 267 93 74 70 65 59 54 54 53 48 49 55 58 69 83 104 128 143 149 156 163 172 177 186 191 188 191 195 184 177 190 197 202
313 301 335 30 5 17 13 350 240 214 274 245 82 55 15 27 60 51 46 44 44 47 52 52 66 60 88 114 131 140 150 154 162 169 171 176 185 182 185 191 189 187 191 199
302 280 317 4 27 2 14 16 337 287 273 320 99 65 327 53 59 66 57 47 45 47 45 47 55 63 73 97 117 130 143 149 156 161 167 167 173 181 183 186 191 197 201 202
338 303 309 24 120 164 11 18 352 296 7 348 63 67 36 48 55 57 57 55 47 47 46 46 46 55 47 73 93 113 136 144 152 152 157 166 175 181 189 194 198 204 210 217
338 339 315 184 198 332 4 13 355 307 247 359 309 107 52 62 54 52 55 51 45 43 40 42 41 46 28 45 65 89 113 124 147 150 158 165 176 180 195 196 200 207 213 221
325 303 344 343 30 314 358 6 12 356 300 32 42 93 38 31 36 39 39 43 42 40 37 36 33 35 25 29 53 48 78 116 125 156 141 159 170 173 196 200 205 212 217 222
357 282 320 288 243 312 3 10 19 22 12 4 85 71 40 34 29 26 29 32 35 33 32 29 26 30 14 33 40 15 46 67 88 119 127 147 170 177 197 202 208 213 217 219
350 307 296 277 215 247 297 15 16 15 1 83 110 74 17 30 38 30 27 24 27 24 22 22 22 17 20 31 17 28 11 49 58 85 130 128 161 164 179 196 206 209 212 217
326 330 314 308 132 291 205 17 2 31 19 344 6 14 345 7 9 19 13 17 18 15 13 14 15 17 14 12 16 22 18 41 32 46 89 129 154 171 201 187 195 200 208 213
325 325 301 302 295 238 72 43 318 330 27 15 5 358 340 332 332 336 359 359 4 3 3 4 3 6 12 12 11 13 13 18 29 11 55 128 137 161 227 196 200 204 205 209
348 307 314 297 311 109 148 39 351 343 101 23 344 350 343 331 304 222 5 353 349 352 349 355 356 357 1 4 9 15 13 14 10 360 5 13 23 226 219 231 216 220 218 218
324 237 270 329 302 321 41 23 353 266 197 25 336 345 342 334 292 71 351 343 337 342 343 346 351 355 356 357 5 9 14 10 6 4 355 344 340 304 277 247 247 232 232 227
325 339 303 319 313 116 54 354 310 247 67 345 331 334 337 342 346 321 330 326 328 330 333 341 348 347 345 347 358 0 2 357 355 360 359 351 327 301 289 272 269 251 246 241
294 324 338 302 271 243 33 227 275 10 330 318 302 308 314 312 321 323 321 320 320 327 331 337 350 341 334 337 350 350 346 345 347 348 347 345 339 329 308 293 282 269 262 254
286 272 302 291 343 14 286 261 266 273 276 297 284 287 298 301 308 317 314 317 317 329 331 332 339 339 342 339 344 341 337 338 340 342 342 337 332 328 323 312 301 291 277 262
183 175 232 322 122 246 263 243 266 255 262 263 280 289 283 280 286 297 298 301 310 321 328 330 331 336 340 338 338 340 339 337 337 336 335 335 338 325 317 316 311 298 282 270
25 160 233 252 271 276 257 261 243 261 260 262 269 279 284 275 276 282 287 295 310 321 329 331 334 338 337 336 333 333 336 334 332 332 332 332 336 327 326 313 306 298 284 274
184 200 223 298 312 256 285 263 268 258 267 267 265 271 270 265 262 260 270 280 289 299 310 313 318 321 324 326 327 323 326 327 325 325 325 334 330 332 327 317 311 316 306 290
Wind_Speed_850mb
19 15 10 23 24 30 27 29 27 52 50 63 56 46 50 29 21 45 52 49 44 51 58 66 77 94 92 85 93 89 87 95 90 80 76 71 68 61 58 54 49 44 40 40
17 15 20 27 28 33 29 26 23 34 46 57 57 48 43 49 19 13 27 56 38 51 55 60 76 79 95 90 89 93 92 97 88 84 79 74 71 64 59 57 52 49 43 39
18 20 31 29 27 27 29 21 22 23 24 46 53 44 45 19 20 12 23 23 32 38 41 53 67 77 83 89 92 89 98 94 91 87 82 74 67 61 58 58 59 56 49 48
9 28 28 27 18 30 22 18 21 26 18 32 50 29 38 38 28 13 16 22 25 25 32 40 48 67 72 90 88 87 86 86 90 87 82 78 76 74 70 65 66 61 56 51
25 23 31 27 27 32 18 36 30 29 20 21 43 32 41 44 37 24 12 23 23 17 19 24 33 47 53 71 85 81 87 88 83 84 80 76 73 68 68 68 67 65 61 55
26 12 19 22 42 7 37 25 26 17 14 17 30 34 43 40 34 26 16 24 25 17 18 18 19 34 39 47 65 72 82 89 87 81 78 75 72 71 67 68 68 67 65 62
23 10 25 47 33 16 43 15 10 18 13 9 28 37 20 28 32 29 20 25 24 21 22 19 22 29 31 39 50 55 68 81 78 78 76 71 69 64 63 67 68 69 67 64
20 11 25 26 14 20 27 13 11 18 10 24 27 20 11 18 29 36 35 29 29 28 24 22 22 31 23 33 40 44 58 72 72 74 69 65 67 65 57 50 53 59 60 55
15 18 9 19 11 26 18 9 15 12 16 12 11 9 22 19 24 32 32 33 34 31 29 27 18 27 24 27 30 35 52 60 64 68 68 64 60 56 61 57 48 45 50 48
8 17 5 14 16 23 11 13 2 8 9 4 13 13 13 12 21 23 26 30 30 30 30 25 26 21 24 23 26 32 44 49 55 58 62 64 65 62 57 52 50 52 52 48
18 8 23 13 17 22 20 11 9 9 8 7 3 7 20 23 21 22 25 28 29 32 34 32 30 25 21 26 22 27 40 41 48 55 57 57 57 59 59 60 58 54 49 49
11 9 20 4 6 4 10 18 12 8 11 6 4 7 17 25 27 30 31 29 32 36 34 34 30 26 34 22 26 24 26 29 41 37 52 55 55 61 57 57 55 55 54 53
19 8 15 7 9 7 12 28 22 16 12 6 7 9 13 24 29 31 31 31 34 37 38 36 33 31 29 25 20 27 16 18 26 37 28 46 42 48 48 53 53 53 53 53
19 11 12 13 5 11 22 30 27 18 7 7 13 19 22 26 26 33 34 33 34 36 38 39 39 35 35 20 31 23 20 9 27 25 28 41 37 43 46 49 48 49 49 51
18 7 7 3 8 10 16 27 25 23 19 13 14 19 18 18 19 29 32 31 34 37 38 39 38 35 27 37 32 17 26 15 17 17 15 24 30 33 30 39 42 41 41 42
17 11 10 23 12 12 12 21 23 15 18 12 10 12 12 16 18 27 30 30 33 34 34 35 35 37 38 37 27 32 22 25 13 10 14 16 16 21 19 25 35 36 33 35
14 14 14 7 0 13 11 14 15 9 14 14 9 8 15 12 15 19 23 26 27 28 29 32 33 32 34 35 33 31 25 20 11 11 11 7 15 13 16 20 25 29 29 28
17 17 7 14 16 6 8 6 8 8 8 11 6 10 13 16 12 9 16 20 22 23 24 24 27 27 26 27 27 27 25 23 20 15 8 3 10 8 12 16 21 27 29 29
6 9 9 7 16 6 8 8 7 10 3 6 9 11 14 18 15 6 12 16 18 21 23 22 22 24 24 24 25 23 25 25 21 15 16 11 1 8 7 9 19 23 25 28
9 12 10 11 9 7 9 9 4 6 7 4 8 11 16 20 8 10 16 16 15 17 17 20 24 20 21 22 22 21 19 17 18 17 15 11 10 9 12 9 15 19 24 27
12 10 9 13 8 7 6 7 3 9 8 4 6 9 12 9 11 19 17 16 15 15 16 17 16 19 21 23 20 19 19 19 18 17 15 13 10 10 11 14 15 18 20 21
6 8 11 9 7 4 5 3 6 5 7 5 4 7 9 13 14 13 16 16 16 14 15 15 12 14 18 20 21 19 19 20 20 18 16 15 13 12 13 14 15 18 20 20
4 4 7 7 9 3 8 9 12 13 10 9 7 6 10 15 12 13 15 14 14 14 15 17 15 15 15 18 19 19 20 20 20 19 19 17 15 15 15 16 17 16 16 19
13 10 7 7 2 10 10 16 19 21 20 16 15 15 14 14 13 13 14 12 11 11 12 14 15 14 15 17 19 21 21 20 20 20 19 19 16 17 15 15 15 15 15 19
4 13 9 13 29 21 23 19 15 19 21 24 24 22 20 18 15 16 15 13 12 12 11 12 14 15 16 17 19 20 21 19 18 19 19 18 18 18 15 13 15 16 16 22
20 10 7 10 9 14 22 16 17 19 20 20 23 22 19 21 19 19 19 16 15 14 16 17 18 18 18 20 20 21 21 21 19 17 17 17 19 19 18 17 13 13 19 19
Wind_Direction_850mb
313 275 267 340 310 307 297 289 292 242 205 223 222 231 217 215 220 218 221 208 204 185 188 189 184 197 194 196 197 197 189 192 193 192 190 187 188 187 187 185 182 176 174 174
334 250 357 324 308 306 291 285 288 278 225 212 216 223 221 217 205 228 235 213 168 179 187 176 177 185 196 198 196 199 197 199 195 192 193 191 190 189 191 188 185 184 183 181
317 345 338 326 315 343 295 270 276 272 267 242 220 224 211 149 144 97 50 56 117 156 172 172 172 181 181 191 199 197 201 201 195 193 193 192 189 191 191 194 191 190 191 191
308 354 346 323 323 356 309 300 300 277 281 217 209 214 216 168 162 151 60 51 71 128 164 166 168 178 175 185 193 196 197 199 194 197 193 193 193 192 196 196 197 193 193 191
354 345 350 355 337 313 283 316 300 294 303 271 214 219 203 180 176 163 82 62 61 88 139 150 158 170 173 178 189 195 195 196 190 195 197 196 198 197 195 199 198 198 197 192
336 25 10 354 321 38 343 288 288 270 260 231 221 195 216 187 187 133 93 64 59 70 109 122 138 164 160 170 181 187 190 189 191 193 197 198 197 196 197 199 199 199 201 200
343 74 17 9 348 333 356 325 236 218 222 237 194 198 64 32 12 109 99 69 59 67 82 90 107 136 151 162 166 174 180 185 183 189 197 199 202 205 207 206 203 200 204 207
349 344 16 6 32 312 302 324 316 229 193 217 234 198 92 55 53 67 66 64 60 61 69 79 81 110 128 145 156 162 166 171 179 188 189 186 196 200 196 195 201 201 204 208
323 334 7 51 18 14 345 336 338 285 223 267 93 74 70 65 59 54 54 53 48 49 55 58 69 83 104 128 143 149 156 163 172 177 186 191 188 191 195 184 177 190 197 202
313 301 335 30 5 17 13 350 240 214 274 245 82 55 15 27 60 51 46 44 44 47 52 52 66 60 88 114 131 140 150 154 162 169 171 176 185 182 185 191 189 187 191 199
302 280 317 4 27 2 14 16 337 287 273 320 99 65 327 53 59 66 57 47 45 47 45 47 55 63 73 97 117 130 143 149 156 161 167 167 173 181 183 186 191 197 201 202
338 303 309 24 120 164 11 18 352 296 7 348 63 67 36 48 55 57 57 55 47 47 46 46 46 55 47 73 93 113 136 144 152 152 157 166 175 181 189 194 198 204 210 217
338 339 315 184 198 332 4 13 355 307 247 359 309 107 52 62 54 52 55 51 45 43 40 42 41 46 28 45 65 89 113 124 147 150 158 165 176 180 195 196 200 207 213 221
325 303 344 343 30 314 358 6 12 356 300 32 42 93 38 31 36 39 39 43 42 40 37 36 33 35 25 29 53 48 78 116 125 156 141 159 170 173 196 200 205 212 217 222
357 282 320 288 243 312 3 10 19 22 12 4 85 71 40 34 29 26 29 32 35 33 32 29 26 30 14 33 40 15 46 67 88 119 127 147 170 177 197 202 208 213 217 219
350 307 296 277 215 247 297 15 16 15 1 83 110 74 17 30 38 30 27 24 27 24 22 22 22 17 20 31 17 28 11 49 58 85 130 128 161 164 179 196 206 209 212 217
326 330 314 308 132 291 205 17 2 31 19 344 6 14 345 7 9 19 13 17 18 15 13 14 15 17 14 12 16 22 18 41 32 46 89 129 154 171 201 187 195 200 208 213
325 325 301 302 295 238 72 43 318 330 27 15 5 358 340 332 332 336 359 359 4 3 3 4 3 6 12 12 11 13 13 18 29 11 55 128 137 161 227 196 200 204 205 209
348 307 314 297 311 109 148 39 351 343 101 23 344 350 343 331 304 222 5 353 349 352 349 355 356 357 1 4 9 15 13 14 10 360 5 13 23 226 219 231 216 220 218 218
324 237 270 329 302 321 41 23 353 266 197 25 336 345 342 334 292 71 351 343 337 342 343 346 351 355 356 357 5 9 14 10 6 4 355 344 340 304 277 247 247 232 232 227
325 339 303 319 313 116 54 354 310 247 67 345 331 334 337 342 346 321 330 326 328 330 333 341 348 347 345 347 358 0 2 357 355 360 359 351 327 301 289 272 269 251 246 241
294 324 338 302 271 243 33 227 275 10 330 318 302 308 314 312 321 323 321 320 320 327 331 337 350 341 334 337 350 350 346 345 347 348 347 345 339 329 308 293 282 269 262 254
286 272 302 291 343 14 286 261 266 273 276 297 284 287 298 301 308 317 314 317 317 329 331 332 339 339 342 339 344 341 337 338 340 342 342 337 332 328 323 312 301 291 277 262
183 175 232 322 122 246 263 243 266 255 262 263 280 289 283 280 286 297 298 301 310 321 328 330 331 336 340 338 338 340 339 337 337 336 335 335 338 325 317 316 311 298 282 270
25 160 233 252 271 276 257 261 243 261 260 262 269 279 284 275 276 282 287 295 310 321 329 331 334 338 337 336 333 333 336 334 332 332 332 332 336 327 326 313 306 298 284 274
184 200 223 298 312 256 285 263 268 258 267 267 265 271 270 265 262 260 270 280 289 299 310 313 318 321 324 326 327 323 326 327 325 325 325 334 330 332 327 317 311 316 306 290